W1JCN Weather Reports


Display with metric or nautical units.
time (UTC)temp
F
wind
direction
speed
MPH
gust
MPH
rain 1hr
in
rain 24hr
in
rain mn
in
humidity
%
barometer
mb
20260506201807 57 174 1.0 8.0 0.00 0.04 0.04 94 1002.3
20260506200907 57 193 1.0 5.0 0.00 0.04 0.04 94 1002.3
20260506200007 57 178 2.0 11.0 0.00 0.04 0.04 94 1002.3
20260506195107 57 174 1.0 7.0 0.01 0.04 0.04 94 1002.4
20260506194207 57 171 1.0 10.0 0.01 0.04 0.04 94 1002.4
20260506193307 57 169 1.0 11.0 0.02 0.04 0.04 94 1002.7
20260506192407 57 169 2.0 11.0 0.02 0.04 0.04 94 1002.7
20260506190607 57 165 0.0 5.0 0.03 0.04 0.04 94 1002.8
20260506185707 56 173 1.0 6.0 0.03 0.04 0.04 94 1003.1
20260506183907 57 131 0.0 3.0 0.03 0.03 0.03 94 1003.2
20260506183007 57 179 1.0 9.0 0.02 0.02 0.02 94 1003.2
20260506182107 57 188 1.0 4.0 0.02 0.02 0.02 94 1003.6
20260506181207 57 168 1.0 4.0 0.02 0.02 0.02 94 1003.7
20260506180307 57 179 1.0 4.0 0.01 0.01 0.01 94 1003.7
20260506175407 57 183 1.0 5.0 0.01 0.01 0.01 94 1004.3
20260506174507 57 178 1.0 5.0 0.00 0.00 0.00 93 1004.4
20260506173607 57 194 0.0 4.0 0.00 0.00 0.00 93 1004.6
20260506172707 57 224 1.0 4.0 0.00 0.00 0.00 93 1004.6
20260506171807 57 192 1.0 4.0 0.00 0.00 0.00 93 1004.6
20260506170907 57 179 1.0 5.0 0.00 0.00 0.00 92 1004.6
20260506170007 58 181 0.0 4.0 0.00 0.00 0.00 92 1004.6
20260506165107 58 172 1.0 6.0 0.00 0.00 0.00 91 1004.7
20260506164207 58 170 1.0 5.0 0.00 0.00 0.00 91 1004.7
20260506162407 59 205 1.0 5.0 0.00 0.00 0.00 90 1004.8
20260506161507 59 205 1.0 8.0 0.00 0.00 0.00 89 1004.8
20260506155707 59 170 1.0 6.0 0.00 0.00 0.00 88 1005.0
20260506154807 59 168 1.0 6.0 0.00 0.00 0.00 89 1005.2
20260506153907 59 164 1.0 6.0 0.00 0.00 0.00 88 1005.4
20260506153006 59 189 1.0 4.0 0.00 0.00 0.00 88 1005.4
20260506152107 59 177 2.0 6.0 0.00 0.00 0.00 87 1005.7
20260506150307 59 211 1.0 4.0 0.00 0.00 0.00 86 1005.9
20260506144507 59 182 1.0 7.0 0.00 0.00 0.00 85 1005.9
20260506141806 59 189 1.0 6.0 0.00 0.00 0.00 86 1005.8
20260506140907 59 174 1.0 6.0 0.00 0.00 0.00 88 1005.9
20260506140006 58 195 0.0 3.0 0.00 0.00 0.00 88 1005.8
20260506135107 57 189 1.0 6.0 0.00 0.00 0.00 89 1005.8
20260506134207 57 153 1.0 6.0 0.00 0.00 0.00 89 1005.8
20260506133306 57 185 1.0 5.0 0.00 0.00 0.00 89 1005.8
20260506131507 56 145 1.0 6.0 0.00 0.00 0.00 89 1006.1
20260506130606 56 178 1.0 4.0 0.00 0.00 0.00 89 1006.1
20260506125706 56 191 1.0 5.0 0.00 0.00 0.00 89 1006.4
20260506124806 56 198 1.0 5.0 0.00 0.00 0.00 89 1006.4
20260506123906 56 187 1.0 5.0 0.00 0.00 0.00 89 1006.4
20260506123006 56 185 1.0 4.0 0.00 0.00 0.00 90 1006.1
20260506122106 56 186 1.0 5.0 0.00 0.00 0.00 90 1006.0
20260506121206 55 181 1.0 9.0 0.00 0.00 0.00 90 1005.7
20260506120306 55 177 1.0 6.0 0.00 0.00 0.00 90 1006.0
20260506115406 55 189 1.0 5.0 0.00 0.00 0.00 91 1006.1
20260506114506 54 185 1.0 5.0 0.00 0.00 0.00 91 1006.2
20260506113606 54 183 1.0 10.0 0.00 0.00 0.00 91 1006.2
20260506111806 54 195 1.0 8.0 0.00 0.00 0.00 92 1006.2
20260506110906 53 193 1.0 5.0 0.00 0.00 0.00 93 1006.4
20260506110006 52 181 0.0 5.0 0.00 0.00 0.00 93 1006.2
20260506105106 52 175 0.0 4.0 0.00 0.00 0.00 93 1006.1
20260506104206 51 181 0.0 4.0 0.00 0.00 0.00 93 1006.2
20260506103306 51 178 0.0 2.0 0.00 0.00 0.00 93 1006.3
20260506102406 51 178 0.0 4.0 0.00 0.00 0.00 93 1006.2
20260506101506 50 178 0.0 2.0 0.00 0.00 0.00 93 1006.4
20260506100606 50 178 0.0 3.0 0.00 0.00 0.00 93 1006.2
20260506094806 50 171 0.0 1.0 0.00 0.00 0.00 91 1006.1
20260506092106 50 0 0.0 0.0 0.00 0.00 0.00 91 1006.0
20260506090306 50 0 0.0 0.0 0.00 0.00 0.00 90 1006.2
20260506085406 51 0 0.0 0.0 0.00 0.00 0.00 90 1006.2
20260506084506 51 0 0.0 0.0 0.00 0.00 0.00 90 1006.2
20260506083606 51 171 0.0 2.0 0.00 0.00 0.00 90 1006.4
20260506082706 51 171 0.0 1.0 0.00 0.00 0.00 90 1006.3
20260506081806 51 0 0.0 0.0 0.00 0.00 0.00 89 1006.5
20260506073306 53 0 0.0 0.0 0.00 0.00 0.00 88 1006.8
20260506072406 53 0 0.0 0.0 0.00 0.00 0.00 87 1006.9
20260506071506 53 0 0.0 0.0 0.00 0.00 0.00 87 1006.8
20260506061206 55 171 0.0 1.0 0.00 0.00 0.00 85 1006.6
20260506050905 58 174 0.0 2.0 0.00 0.00 0.00 83 1006.7
20260506045106 58 176 0.0 2.0 0.00 0.00 0.00 84 1006.9
20260506044205 58 174 0.0 2.0 0.00 0.00 0.00 85 1006.8
20260506042405 57 181 0.0 3.0 0.00 0.00 0.00 86 1006.6
20260506040605 58 196 0.0 4.0 0.00 0.00 0.00 86 1006.3
20260506035705 58 200 0.0 2.0 0.00 0.00 0.00 87 1006.7
20260506034805 58 0 0.0 0.0 0.00 0.00 0.00 88 1006.5
20260506033006 57 0 0.0 0.0 0.00 0.00 0.00 90 1006.7
20260506032105 57 200 0.0 3.0 0.00 0.00 0.00 90 1006.8
20260506030305 57 212 0.0 1.0 0.00 0.00 0.00 91 1006.7
20260506025405 57 0 0.0 0.0 0.00 0.00 0.00 91 1006.4
20260506024505 57 222 0.0 3.0 0.00 0.00 0.00 91 1006.8
20260506023605 57 0 0.0 0.0 0.00 0.00 0.00 91 1006.6
20260506022705 57 0 0.0 0.0 0.00 0.00 0.00 91 1006.7
20260506021805 57 0 0.0 0.0 0.00 0.00 0.00 91 1006.7
20260506020005 57 0 0.0 0.0 0.00 0.00 0.00 90 1006.6
20260506015105 57 0 0.0 0.0 0.00 0.00 0.00 89 1006.6
20260506013305 58 0 0.0 0.0 0.00 0.00 0.00 88 1006.2
20260506012405 59 0 0.0 0.0 0.00 0.00 0.00 87 1006.2
20260506011505 60 0 0.0 0.0 0.00 0.00 0.00 86 1006.0
20260506010605 60 0 0.0 0.0 0.00 0.00 0.00 83 1005.8
20260506005705 60 0 0.0 0.0 0.00 0.00 0.00 81 1006.1
20260506004805 61 0 0.0 0.0 0.00 0.00 0.00 80 1006.0
20260506003905 61 0 0.0 0.0 0.00 0.00 0.00 79 1006.2
20260506003005 61 0 0.0 0.0 0.00 0.00 0.00 78 1006.0
20260506002105 61 0 0.0 0.0 0.00 0.00 0.00 77 1006.0
20260506001205 62 0 0.0 0.0 0.00 0.00 0.00 79 1005.7
20260506000305 62 0 0.0 0.0 0.00 0.00 0.00 78 1005.7
20260505235405 62 0 0.0 0.0 0.00 0.00 0.00 76 1005.7
20260505234505 62 0 0.0 0.0 0.00 0.00 0.00 77 1005.6
20260505233605 62 0 0.0 0.0 0.00 0.00 0.00 76 1005.4
20260505232705 63 278 0.0 1.0 0.00 0.00 0.00 75 1005.4
20260505231805 63 0 0.0 0.0 0.00 0.00 0.00 76 1005.6
20260505225105 63 277 0.0 3.0 0.00 0.00 0.00 74 1004.8
20260505223305 64 284 1.0 8.0 0.00 0.00 0.00 70 1004.5
20260505222404 65 304 1.0 6.0 0.00 0.00 0.00 68 1004.1
20260505221506 66 286 1.0 8.0 0.00 0.00 0.00 68 1003.9
20260505215704 67 322 1.0 8.0 0.00 0.00 0.00 61 1003.2
20260505214805 68 309 1.0 6.0 0.00 0.00 0.00 62 1003.2
20260505213905 68 314 1.0 5.0 0.00 0.00 0.00 59 1003.2
20260505213005 70 299 2.0 9.0 0.00 0.00 0.00 54 1003.5
20260505212104 73 299 2.0 8.0 0.00 0.00 0.00 48 1003.3
20260505211205 74 243 2.0 5.0 0.00 0.00 0.00 39 1003.0
20260505204745 75 204 2.0 14.0 0.00 0.00 0.00 38 1001.9
20260505202945 76 207 1.0 7.0 0.00 0.00 0.00 38 1001.7